Regional Weather Roundup
Issued by NWS

Home | Current Version | Previous Version | Graphics & Text | Print | Product List | Glossary On
Versions: 1 2 3 4 5 6 7 8 9 10 11 12 13 14 15 16 17 18 19 20 21 22 23 24 25 26 27 28 29 30 31 32 33 34 35 36 37 38 39 40 41 42 43 44 45 46 47 48 49 50
648
ASUS43 KOAX 201310
RWRNE

WEATHER ROUNDUP FOR NEBRASKA
NATIONAL WEATHER SERVICE OMAHA NE
800 AM CDT FRI OCT 20 2017

NOTES: SATELLITE DATA IS BEING USED TO AUGMENT CLOUD COVER ABOVE
       12000 FEET.
       "FAIR" INDICATES FEW OR NO CLOUDS BELOW 12,000 FEET WITH NO
       SIGNIFICANT WEATHER AND/OR OBSTRUCTIONS TO VISIBILITY.


NEZ001>004-019>022-054>056-201400-
NEBRASKA PANHANDLE

CITY           SKY/WX    TMP DP  RH WIND       PRES   REMARKS
SCOTTSBLUFF    CLOUDY    39  32  76 E3        29.69F
ALLIANCE       CLOUDY    42  40  92 SE7       29.69F
CHADRON        CLOUDY    46  34  62 SW7       29.62F
GORDON         FAIR      49  44  83 S6        29.67F
KIMBALL        CLOUDY    40  32  75 W8        29.73F WCI  34
SIDNEY         CLOUDY    35  34  96 SW5       29.72F WCI  31
$$

NEZ057>060-069>072-079>082-201400-
SOUTHWEST NEBRASKA

CITY           SKY/WX    TMP DP  RH WIND       PRES   REMARKS
NORTH PLATTE   CLOUDY    56  48  74 SE13      29.76F
IMPERIAL       PTCLDY    52  46  80 SE6       29.75F
LEXINGTON      PTCLDY    56  47  71 S12       29.81S
MCCOOK         PTCLDY    57  49  74 S8        29.78F
OGALLALA       CLOUDY    49  46  87 E3        29.74F
$$

NEZ005>010-023>029-035>040-094-201400-
NORTH CENTRAL NEBRASKA

CITY           SKY/WX    TMP DP  RH WIND       PRES   REMARKS
VALENTINE      CLEAR     53  45  74 S13       29.68F
AINSWORTH      PTCLDY    54  47  78 S13       29.71F
BROKEN BOW     PTCLDY    55  47  74 S13G23    29.77F
O`NEILL        PTCLDY    56  49  77 S15       29.76F
ORD            CLOUDY    55  48  77 S13       29.79F
THEDFORD       CLOUDY    56  47  73 S13       29.73F
$$

NEZ041-046>049-061>064-073>077-083>087-201400-
SOUTH CENTRAL NEBRASKA

CITY           SKY/WX    TMP DP  RH WIND       PRES   REMARKS
GRAND ISLAND   CLEAR     55  51  86 S15       29.85F
AURORA         CLEAR     56  51  82 S16G22    29.86F
HASTINGS       CLEAR     56  49  77 S14       29.86F
HEBRON         CLEAR     57  52  82 S10G16    29.91F
HOLDREGE       CLEAR     54  49  83 S12       29.83S
KEARNEY        CLEAR     56  48  74 S17       29.84S
YORK           CLOUDY    57  54  88 S13       29.88F
$$

NEZ011>018-030>034-042>045-201400-
NORTHEAST NEBRASKA

CITY           SKY/WX    TMP DP  RH WIND       PRES   REMARKS
NORFOLK        PTCLDY    57  50  77 S17       29.84F
ALBION         PTCLDY    58  50  76 S9        29.84S
BLAIR          CLEAR     57  52  83 S12       29.93F
COLUMBUS       PTCLDY    59  51  75 S16G22    29.87F
FREMONT        PTCLDY    56  51  82 SE12      29.91F
TEKAMAH        CLOUDY    52  49  89 S6        29.92F
WAYNE          MOCLDY    55  53  91 S12       29.85F
$$

NEZ050>053-065>068-078-088>093-201400-
SOUTHEAST NEBRASKA

CITY           SKY/WX    TMP DP  RH WIND       PRES   REMARKS
LINCOLN        CLOUDY    58  52  80 S15       29.92F
OMAHA EPPLEY   PTCLDY    58  51  78 S15       29.95F
BEATRICE       PTCLDY    59  53  80 S13       29.95F
FALLS CITY     MOCLDY    57  52  83 S10       30.00F
NEBRASKA CITY  PTCLDY    56  56  97 S12       29.97F
PLATTSMOUTH    PTCLDY    55  53  92 SE10      29.96F
$$

NEZ044-045-051>053-067-201400-
OMAHA AREA

CITY           SKY/WX    TMP DP  RH WIND       PRES   REMARKS
OMAHA EPPLEY   PTCLDY    58  51  78 S15       29.95F
BLAIR          CLEAR     57  52  83 S12       29.93F
FREMONT        PTCLDY    56  51  82 SE12      29.91F
MILLARD        PTCLDY    58  53  83 SE8       29.95F
OFFUTT AFB     PTCLDY    56  52  86 SE9       29.95F
PLATTSMOUTH    PTCLDY    55  53  92 SE10      29.96F
WAHOO          CLOUDY    54  51  90 SE6       29.92F
$$




USA.gov is the U.S. government's official web portal to all federal, state and local government web resources and services.